Terminal Aerodrome Forecast
Issued by NWS

Home | Current Version | Previous Version | Text Only | Print | Product List | Glossary On
Versions: 1 2 3 4 5 6 7 8 9 10 11 12 13 14 15 16 17 18 19 20 21 22 23 24 25 26 27 28 29 30 31 32 33 34 35 36 37 38 39 40 41 42 43 44
000
FTUS46 KOTX 192323
TAFMWH
TAF
KMWH 192323Z 2000/2024 18005KT P6SM SCT013
     FM200600 15004KT 2SM BR OVC007
     FM201200 10008KT 2SM -RA BR OVC007
     FM201900 14007KT 3SM -RA BR OVC007=

USA.gov is the U.S. government's official web portal to all federal, state and local government web resources and services.